Погода в Сан-Педро

Белиз     18°59′14″N   88°55′22″W
темп.,
°C
ветер,
м/с
пор.,
м/с
влажн.,
%
обл.,
%
осадки,
мм/ч
давл.,
гПа
погр.,
м
3 августа, вт
вт300:00+23в119954 0.1 101634
03:00+23в129932 0.2 101473
06:00+23вюв119947 0.2 101453
09:00+31вюв256190 0.1 10151359
12:00+33вюв345287 0.3 10141843
15:00+34юв454617 0.1 10121993
18:00+29вюв37685 0.2 1013868
21:00+25вюв210865 0.0 1015614
4 августа, ср
ср400:00+22юв129999 0.0 101540
03:00+22вюв1510066 0.0 1013141
06:00+22юв1210042 0.0 101380
09:00+31вюв36545 0.1 10151418
12:00+35вюв353382 0.1 10142403
15:00+36юв353160 0.0 10112566
18:00+31юв37505 0.0 1012744
21:00+26юв29781 0.0 1014526
5 августа, чт
чт500:00+23вюв149927 0.0 1015111
03:00+23вюв1110043 0.0 101434
06:00+22в119934 0.0 101530
09:00+30вюв356531 0.3 10161304
12:00+35вюв35300 0.3 10142288
15:00+36вюв35275 0.0 10122568
18:00+31юв37466 0.0 1013811
21:00+26вюв210800 0.0 1015626
6 августа, пт
пт600:00+24вюв18941 0.0 1016341
03:00+23всв1310038 0.0 1014111
06:00+23в169950 0.0 1015188
09:00+27юв26859 1.4 1016713
12:00+29вюв368029 5.6 1015900
15:00+28в377995 3.5 1014881
18:00+26вюв278345 4.2 1015669
21:00+23в1298100 0.0 101663
7 августа, сб
сб700:00+22всв119954 0.0 101626
03:00+22ссв119996 0.0 101426
06:00+23всв189794 0.0 1015263
09:00+27вюв277597 0.1 1016978
12:00+28ююв3869100 0.1 1015808
15:00+32вюв374866 0.0 10131909
18:00+29юв376153 0.0 1013889
21:00+24вюв188939 0.0 1016263